PSRFS SBTG-SBCY

Flight info

Callsign PSRFS
Flight time N/A
Altitude FL240
Route KALER UL655 LIVER CI
Aircraft BE20/L-VGD/C

Departure

Time N/A
Airport Plínio Alarcom Airport (SBTG)

Arrival

Time 2026-04-15 21:01
Airport Várzea Grande–Marechal Rondon International Airport (SBCY)
Time Latitude Longitude Altitude Speed Heading
2026-04-15 19:50 -19.27859 -52.99895 19915 ft 264 kts 320°
2026-04-15 19:51 -19.26455 -53.01138 19915 ft 264 kts 320°
2026-04-15 19:51 -19.25046 -53.02384 19915 ft 264 kts 320°
2026-04-15 19:51 -19.23633 -53.03633 19915 ft 265 kts 320°
2026-04-15 19:51 -19.22226 -53.04877 19914 ft 265 kts 320°
2026-04-15 19:52 -19.20811 -53.06128 19914 ft 265 kts 320°
2026-04-15 19:52 -19.19400 -53.07374 19914 ft 265 kts 320°
2026-04-15 19:52 -19.17986 -53.08623 19914 ft 266 kts 320°
2026-04-15 19:52 -19.16569 -53.09875 19915 ft 266 kts 320°
2026-04-15 19:53 -19.15152 -53.11125 19914 ft 266 kts 320°
2026-04-15 19:53 -19.13738 -53.12374 19914 ft 266 kts 320°
2026-04-15 19:53 -19.12321 -53.13624 19914 ft 266 kts 320°
2026-04-15 19:53 -19.10901 -53.14876 19914 ft 266 kts 320°
2026-04-15 19:54 -19.09481 -53.16128 19914 ft 266 kts 320°
2026-04-15 19:54 -19.08062 -53.17379 19914 ft 266 kts 320°
2026-04-15 19:54 -19.06644 -53.18629 19914 ft 266 kts 320°
2026-04-15 19:54 -19.05224 -53.19880 19913 ft 266 kts 320°
2026-04-15 19:55 -19.03812 -53.21125 19914 ft 266 kts 320°
2026-04-15 19:55 -19.02392 -53.22375 19915 ft 266 kts 320°
2026-04-15 19:55 -19.00971 -53.23627 19914 ft 266 kts 320°
2026-04-15 19:55 -18.99558 -53.24870 19914 ft 265 kts 320°
2026-04-15 19:56 -18.98145 -53.26114 19914 ft 265 kts 320°
2026-04-15 19:56 -18.96726 -53.27363 19914 ft 265 kts 320°
2026-04-15 19:56 -18.95311 -53.28607 19914 ft 265 kts 320°
2026-04-15 19:56 -18.93898 -53.29850 19914 ft 265 kts 320°
2026-04-15 19:57 -18.92483 -53.31095 19914 ft 265 kts 320°
2026-04-15 19:57 -18.91074 -53.32333 19914 ft 265 kts 320°
2026-04-15 19:57 -18.89660 -53.33576 19914 ft 265 kts 320°
2026-04-15 19:57 -18.88245 -53.34819 19914 ft 265 kts 320°
2026-04-15 19:58 -18.86831 -53.36062 19914 ft 265 kts 320°
2026-04-15 19:58 -18.85418 -53.37303 19914 ft 265 kts 320°
2026-04-15 19:58 -18.84005 -53.38544 19914 ft 265 kts 320°
2026-04-15 19:58 -18.82590 -53.39786 19914 ft 265 kts 320°
2026-04-15 19:59 -18.81182 -53.41023 19914 ft 265 kts 320°
2026-04-15 19:59 -18.79767 -53.42264 19913 ft 265 kts 320°
2026-04-15 19:59 -18.78353 -53.43505 19913 ft 265 kts 320°
2026-04-15 19:59 -18.76939 -53.44745 19912 ft 265 kts 320°
2026-04-15 20:00 -18.75525 -53.45985 19912 ft 265 kts 320°
2026-04-15 20:00 -18.74112 -53.47224 19912 ft 265 kts 320°
2026-04-15 20:00 -18.72697 -53.48465 19912 ft 265 kts 320°
2026-04-15 20:00 -18.71283 -53.49704 19912 ft 265 kts 320°
2026-04-15 20:01 -18.69869 -53.50943 19912 ft 265 kts 320°
2026-04-15 20:01 -18.68454 -53.52183 19912 ft 265 kts 320°
2026-04-15 20:01 -18.67041 -53.53419 19912 ft 265 kts 320°
2026-04-15 20:01 -18.65623 -53.54661 19911 ft 265 kts 320°
2026-04-15 20:02 -18.64207 -53.55901 19911 ft 265 kts 320°
2026-04-15 20:02 -18.62794 -53.57138 19912 ft 265 kts 319°
2026-04-15 20:02 -18.61382 -53.58374 19910 ft 265 kts 319°
2026-04-15 20:02 -18.59968 -53.59610 19908 ft 265 kts 319°
2026-04-15 20:03 -18.58553 -53.60848 19907 ft 265 kts 319°
2026-04-15 20:03 -18.57136 -53.62087 19907 ft 265 kts 319°
2026-04-15 20:03 -18.55725 -53.63320 19907 ft 265 kts 319°
2026-04-15 20:03 -18.54306 -53.64560 19906 ft 265 kts 319°
2026-04-15 20:04 -18.52892 -53.65796 19906 ft 265 kts 319°
2026-04-15 20:04 -18.51479 -53.67031 19906 ft 265 kts 319°
2026-04-15 20:04 -18.50066 -53.68265 19906 ft 265 kts 319°
2026-04-15 20:04 -18.48649 -53.69502 19905 ft 265 kts 319°
2026-04-15 20:05 -18.47234 -53.70738 19905 ft 265 kts 319°
2026-04-15 20:05 -18.45825 -53.71967 19904 ft 265 kts 319°
2026-04-15 20:05 -18.44405 -53.73207 19903 ft 265 kts 319°
2026-04-15 20:05 -18.42994 -53.74438 19902 ft 265 kts 319°
2026-04-15 20:06 -18.41575 -53.75675 19902 ft 265 kts 319°
2026-04-15 20:06 -18.40159 -53.76911 19902 ft 265 kts 319°
2026-04-15 20:06 -18.38742 -53.78147 19902 ft 265 kts 319°
2026-04-15 20:06 -18.37329 -53.79378 19902 ft 265 kts 319°
2026-04-15 20:07 -18.35913 -53.80612 19902 ft 265 kts 319°
2026-04-15 20:07 -18.34496 -53.81847 19902 ft 265 kts 319°
2026-04-15 20:07 -18.33078 -53.83082 19902 ft 265 kts 319°
2026-04-15 20:07 -18.31663 -53.84315 19902 ft 265 kts 319°
2026-04-15 20:08 -18.30249 -53.85546 19902 ft 265 kts 319°
2026-04-15 20:08 -18.28831 -53.86780 19902 ft 265 kts 319°
2026-04-15 20:08 -18.27412 -53.88015 19901 ft 265 kts 319°
2026-04-15 20:08 -18.25997 -53.89246 19900 ft 265 kts 319°
2026-04-15 20:09 -18.24579 -53.90480 19899 ft 265 kts 319°
2026-04-15 20:09 -18.23159 -53.91716 19898 ft 265 kts 319°
2026-04-15 20:09 -18.21741 -53.92949 19898 ft 265 kts 319°
2026-04-15 20:09 -18.20321 -53.94183 19898 ft 265 kts 319°
2026-04-15 20:10 -18.18902 -53.95417 19898 ft 265 kts 319°
2026-04-15 20:10 -18.17484 -53.96649 19898 ft 265 kts 319°
2026-04-15 20:10 -18.16060 -53.97887 19898 ft 265 kts 319°
2026-04-15 20:10 -18.14642 -53.99118 19898 ft 265 kts 319°
2026-04-15 20:11 -18.13225 -54.00349 19898 ft 265 kts 319°
2026-04-15 20:11 -18.11803 -54.01583 19897 ft 265 kts 319°
2026-04-15 20:11 -18.10379 -54.02820 19897 ft 265 kts 319°
2026-04-15 20:11 -18.08958 -54.04053 19896 ft 266 kts 319°
2026-04-15 20:12 -18.07536 -54.05287 19896 ft 266 kts 319°
2026-04-15 20:12 -18.06117 -54.06519 19895 ft 266 kts 319°
2026-04-15 20:12 -18.04692 -54.07754 19895 ft 266 kts 319°
2026-04-15 20:12 -18.03269 -54.08988 19895 ft 266 kts 319°
2026-04-15 20:13 -18.01846 -54.10222 19895 ft 266 kts 319°
2026-04-15 20:13 -18.00429 -54.11451 19895 ft 266 kts 319°
2026-04-15 20:13 -17.99003 -54.12686 19895 ft 266 kts 319°
2026-04-15 20:13 -17.97578 -54.13921 19895 ft 266 kts 319°
2026-04-15 20:14 -17.96155 -54.15154 19894 ft 266 kts 319°
2026-04-15 20:14 -17.94731 -54.16387 19894 ft 266 kts 319°
2026-04-15 20:14 -17.93309 -54.17619 19893 ft 266 kts 319°
2026-04-15 20:14 -17.91879 -54.18856 19892 ft 266 kts 319°
2026-04-15 20:15 -17.90455 -54.20089 19890 ft 266 kts 319°
2026-04-15 20:15 -17.89034 -54.21319 19890 ft 266 kts 319°
2026-04-15 20:15 -17.87603 -54.22557 19890 ft 266 kts 319°
2026-04-15 20:15 -17.86177 -54.23790 19890 ft 266 kts 319°
2026-04-15 20:16 -17.84751 -54.25024 19890 ft 266 kts 319°
2026-04-15 20:16 -17.83328 -54.26254 19890 ft 266 kts 319°
2026-04-15 20:16 -17.81904 -54.27485 19891 ft 266 kts 319°
2026-04-15 20:16 -17.80478 -54.28717 19891 ft 266 kts 319°
2026-04-15 20:17 -17.79050 -54.29951 19891 ft 266 kts 319°
2026-04-15 20:17 -17.77624 -54.31183 19891 ft 266 kts 319°
2026-04-15 20:17 -17.76195 -54.32417 19891 ft 266 kts 319°
2026-04-15 20:17 -17.74768 -54.33649 19890 ft 266 kts 319°
2026-04-15 20:18 -17.73346 -54.34877 19889 ft 266 kts 319°
2026-04-15 20:18 -17.71917 -54.36110 19888 ft 266 kts 319°
2026-04-15 20:18 -17.70485 -54.37346 19888 ft 266 kts 319°
2026-04-15 20:18 -17.69063 -54.38573 19886 ft 266 kts 319°
2026-04-15 20:19 -17.67631 -54.39809 19886 ft 266 kts 319°
2026-04-15 20:19 -17.66207 -54.41036 19885 ft 266 kts 319°
2026-04-15 20:19 -17.64779 -54.42268 19886 ft 266 kts 319°
2026-04-15 20:19 -17.64696 -54.42339 19886 ft 266 kts 319°
2026-04-15 20:20 -17.63940 -54.42991 19886 ft 266 kts 319°
2026-04-15 20:20 -17.62515 -54.44219 19886 ft 266 kts 319°
2026-04-15 20:20 -17.61089 -54.45448 19885 ft 266 kts 319°
2026-04-15 20:20 -17.59656 -54.46682 19885 ft 266 kts 319°
2026-04-15 20:21 -17.58230 -54.47910 19885 ft 266 kts 319°
2026-04-15 20:21 -17.56804 -54.49139 19884 ft 266 kts 319°
2026-04-15 20:21 -17.55377 -54.50368 19883 ft 266 kts 319°
2026-04-15 20:21 -17.53946 -54.51599 19883 ft 266 kts 319°
2026-04-15 20:22 -17.52515 -54.52831 19883 ft 266 kts 319°
2026-04-15 20:22 -17.51092 -54.54055 19883 ft 266 kts 319°
2026-04-15 20:22 -17.49659 -54.55287 19883 ft 266 kts 319°
2026-04-15 20:22 -17.48237 -54.56511 19883 ft 266 kts 319°
2026-04-15 20:23 -17.46804 -54.57743 19883 ft 266 kts 319°
2026-04-15 20:23 -17.45376 -54.58970 19883 ft 266 kts 319°
2026-04-15 20:23 -17.43950 -54.60196 19883 ft 266 kts 319°
2026-04-15 20:23 -17.42516 -54.61428 19883 ft 266 kts 319°
2026-04-15 20:24 -17.41092 -54.62652 19881 ft 266 kts 319°
2026-04-15 20:24 -17.38230 -54.65110 19877 ft 266 kts 319°
2026-04-15 20:24 -17.36801 -54.66337 19876 ft 266 kts 319°
2026-04-15 20:25 -17.35372 -54.67564 19876 ft 266 kts 319°
2026-04-15 20:25 -17.33944 -54.68789 19876 ft 266 kts 319°
2026-04-15 20:25 -17.32517 -54.70014 19877 ft 266 kts 319°
2026-04-15 20:25 -17.31088 -54.71239 19877 ft 266 kts 319°
2026-04-15 20:26 -17.29658 -54.72466 19877 ft 266 kts 319°
2026-04-15 20:26 -17.28228 -54.73692 19878 ft 266 kts 319°
2026-04-15 20:26 -17.26801 -54.74916 19878 ft 266 kts 319°
2026-04-15 20:26 -17.25374 -54.76139 19878 ft 266 kts 319°
2026-04-15 20:27 -17.23945 -54.77363 19878 ft 266 kts 319°
2026-04-15 20:27 -17.22512 -54.78591 19878 ft 266 kts 320°
2026-04-15 20:27 -17.21085 -54.79813 19876 ft 266 kts 320°
2026-04-15 20:27 -17.19658 -54.81036 19874 ft 266 kts 320°
2026-04-15 20:28 -17.18223 -54.82264 19873 ft 266 kts 320°
2026-04-15 20:28 -17.16796 -54.83486 19872 ft 266 kts 320°
2026-04-15 20:28 -17.15368 -54.84708 19870 ft 266 kts 320°
2026-04-15 20:28 -17.13935 -54.85935 19865 ft 266 kts 320°
2026-04-15 20:29 -17.12502 -54.87161 19865 ft 266 kts 320°
2026-04-15 20:29 -17.11076 -54.88381 19865 ft 266 kts 320°
2026-04-15 20:29 -17.09645 -54.89604 19865 ft 266 kts 320°
2026-04-15 20:29 -17.08211 -54.90831 19864 ft 266 kts 320°
2026-04-15 20:30 -17.06780 -54.92053 19829 ft 267 kts 320°
2026-04-15 20:30 -17.06120 -54.92618 19700 ft 266 kts 320°
2026-04-15 20:30 -17.05893 -54.92811 19615 ft 268 kts 320°
2026-04-15 20:30 -17.04441 -54.94053 19114 ft 274 kts 320°
2026-04-15 20:31 -17.02967 -54.95333 18614 ft 278 kts 316°
2026-04-15 20:31 -17.01757 -54.96902 18118 ft 281 kts 302°
2026-04-15 20:31 -17.00760 -54.98666 17619 ft 283 kts 298°
2026-04-15 20:31 -16.99803 -55.00473 17118 ft 285 kts 297°
2026-04-15 20:32 -16.98915 -55.02311 16621 ft 286 kts 296°
2026-04-15 20:32 -16.97857 -55.04069 16123 ft 287 kts 303°
2026-04-15 20:32 -16.96678 -55.05756 15624 ft 288 kts 306°
2026-04-15 20:32 -16.95459 -55.07418 15201 ft 287 kts 306°
2026-04-15 20:33 -16.94246 -55.09049 14826 ft 284 kts 307°
2026-04-15 20:33 -16.93038 -55.10670 14450 ft 282 kts 307°
2026-04-15 20:33 -16.91843 -55.12277 14076 ft 280 kts 307°
2026-04-15 20:33 -16.90660 -55.13872 13702 ft 278 kts 307°
2026-04-15 20:34 -16.89483 -55.15464 13326 ft 277 kts 307°
2026-04-15 20:34 -16.88315 -55.17048 12952 ft 275 kts 307°
2026-04-15 20:34 -16.87153 -55.18630 12577 ft 275 kts 307°
2026-04-15 20:34 -16.86003 -55.20206 12204 ft 274 kts 307°
2026-04-15 20:35 -16.84852 -55.21791 11828 ft 273 kts 307°
2026-04-15 20:35 -16.83713 -55.23368 11454 ft 272 kts 307°
2026-04-15 20:35 -16.82578 -55.24944 11079 ft 271 kts 307°
2026-04-15 20:35 -16.81454 -55.26511 10705 ft 271 kts 307°
2026-04-15 20:36 -16.80330 -55.28084 10330 ft 270 kts 307°
2026-04-15 20:36 -16.79217 -55.29648 10025 ft 266 kts 307°
2026-04-15 20:36 -16.78139 -55.31166 9907 ft 257 kts 307°
2026-04-15 20:37 -16.76098 -55.34050 9850 ft 239 kts 307°
2026-04-15 20:37 -16.75130 -55.35419 9846 ft 232 kts 307°
2026-04-15 20:37 -16.74183 -55.36758 9846 ft 227 kts 307°
2026-04-15 20:37 -16.73255 -55.38071 9846 ft 223 kts 307°
2026-04-15 20:38 -16.72343 -55.39362 9847 ft 220 kts 307°
2026-04-15 20:38 -16.71439 -55.40641 9847 ft 219 kts 307°
2026-04-15 20:38 -16.70515 -55.41948 9857 ft 231 kts 307°
2026-04-15 20:38 -16.69545 -55.43320 9856 ft 240 kts 307°
2026-04-15 20:39 -16.68538 -55.44743 9853 ft 247 kts 307°
2026-04-15 20:39 -16.67507 -55.46199 9851 ft 252 kts 307°
2026-04-15 20:39 -16.66461 -55.47675 9851 ft 256 kts 307°
2026-04-15 20:39 -16.65401 -55.49173 9850 ft 258 kts 307°
2026-04-15 20:40 -16.64332 -55.50681 9850 ft 260 kts 307°
2026-04-15 20:40 -16.63928 -55.51251 9850 ft 260 kts 307°
2026-04-15 20:40 -16.62937 -55.52600 9850 ft 261 kts 309°
2026-04-15 20:40 -16.61767 -55.54050 9850 ft 262 kts 311°
2026-04-15 20:41 -16.60572 -55.55481 9850 ft 263 kts 311°
2026-04-15 20:41 -16.59286 -55.56821 9850 ft 263 kts 318°
2026-04-15 20:41 -16.57897 -55.58091 9641 ft 271 kts 320°
2026-04-15 20:41 -16.56434 -55.59377 9142 ft 279 kts 320°
2026-04-15 20:42 -16.54928 -55.60683 8645 ft 286 kts 321°
2026-04-15 20:42 -16.53388 -55.62012 8145 ft 289 kts 321°
2026-04-15 20:42 -16.51829 -55.63343 7645 ft 291 kts 323°
2026-04-15 20:42 -16.50161 -55.64544 7148 ft 291 kts 327°
2026-04-15 20:43 -16.48491 -55.65622 6933 ft 274 kts 329°
2026-04-15 20:43 -16.46867 -55.66557 6869 ft 259 kts 333°
2026-04-15 20:43 -16.45304 -55.67367 6851 ft 246 kts 334°
2026-04-15 20:43 -16.43792 -55.68124 6847 ft 236 kts 334°
2026-04-15 20:44 -16.42435 -55.68796 6845 ft 225 kts 335°
2026-04-15 20:44 -16.41413 -55.69319 6844 ft 219 kts 332°
2026-04-15 20:44 -16.40111 -55.70089 6845 ft 215 kts 329°
2026-04-15 20:44 -16.38801 -55.70909 6853 ft 223 kts 329°
2026-04-15 20:45 -16.37467 -55.71755 6851 ft 228 kts 328°
2026-04-15 20:45 -16.36103 -55.72622 6841 ft 231 kts 328°
2026-04-15 20:45 -16.34695 -55.73518 6565 ft 244 kts 328°
2026-04-15 20:45 -16.33222 -55.74454 6268 ft 253 kts 329°
2026-04-15 20:46 -16.31702 -55.75417 5969 ft 259 kts 329°
2026-04-15 20:46 -16.30150 -55.76399 5671 ft 262 kts 328°
2026-04-15 20:46 -16.28590 -55.77391 5370 ft 265 kts 329°
2026-04-15 20:46 -16.27021 -55.78388 5072 ft 266 kts 329°
2026-04-15 20:47 -16.25449 -55.79388 4772 ft 266 kts 328°
2026-04-15 20:47 -16.23870 -55.80396 4472 ft 266 kts 328°
2026-04-15 20:47 -16.22595 -55.81210 4229 ft 266 kts 329°
2026-04-15 20:47 -16.21467 -55.81928 4014 ft 264 kts 329°
2026-04-15 20:48 -16.19924 -55.82910 3713 ft 258 kts 329°
2026-04-15 20:48 -16.18412 -55.83872 3413 ft 253 kts 329°
2026-04-15 20:48 -16.16940 -55.84807 3148 ft 241 kts 329°
2026-04-15 20:48 -16.15557 -55.85686 3005 ft 228 kts 328°
2026-04-15 20:49 -16.14233 -55.86523 2891 ft 216 kts 328°
2026-04-15 20:49 -16.13012 -55.87292 2850 ft 197 kts 328°
2026-04-15 20:49 -16.11863 -55.88009 2818 ft 189 kts 328°
2026-04-15 20:49 -16.10839 -55.88638 2652 ft 191 kts 328°
2026-04-15 20:50 -16.09687 -55.89332 2493 ft 192 kts 328°
2026-04-15 20:50 -16.08533 -55.90015 2368 ft 191 kts 328°
2026-04-15 20:50 -16.07371 -55.90696 2214 ft 193 kts 328°
2026-04-15 20:50 -16.06202 -55.91374 2098 ft 193 kts 329°
2026-04-15 20:51 -16.05045 -55.92045 2058 ft 188 kts 329°
2026-04-15 20:51 -16.03916 -55.92699 2048 ft 183 kts 329°
2026-04-15 20:51 -16.02817 -55.93337 2043 ft 179 kts 328°
2026-04-15 20:51 -16.01740 -55.93956 2046 ft 176 kts 329°
2026-04-15 20:52 -16.00679 -55.94569 2047 ft 173 kts 328°
2026-04-15 20:52 -16.00632 -55.94596 2047 ft 173 kts 328°
2026-04-15 20:52 -15.99940 -55.94996 2046 ft 172 kts 328°
2026-04-15 20:53 -15.98865 -55.95519 2043 ft 171 kts 338°
2026-04-15 20:53 -15.97741 -55.95905 2047 ft 170 kts 340°
2026-04-15 20:53 -15.96625 -55.96270 2049 ft 168 kts 340°
2026-04-15 20:53 -15.95514 -55.96637 2047 ft 167 kts 340°
2026-04-15 20:54 -15.94409 -55.97008 2050 ft 167 kts 340°
2026-04-15 20:54 -15.94043 -55.97132 2049 ft 167 kts 340°
2026-04-15 20:54 -15.93017 -55.97482 2045 ft 166 kts 340°
2026-04-15 20:54 -15.91923 -55.97860 2048 ft 166 kts 339°
2026-04-15 20:55 -15.91134 -55.98138 2050 ft 165 kts 339°
2026-04-15 20:55 -15.90041 -55.98526 2051 ft 165 kts 339°
2026-04-15 20:55 -15.88941 -55.98865 2044 ft 166 kts 344°
2026-04-15 20:55 -15.87886 -55.99324 2051 ft 164 kts 329°
2026-04-15 20:56 -15.86902 -55.99909 2049 ft 164 kts 328°
2026-04-15 20:56 -15.85912 -56.00487 2051 ft 163 kts 328°
2026-04-15 20:56 -15.84916 -56.01061 2051 ft 164 kts 328°
2026-04-15 20:56 -15.83894 -56.01651 2075 ft 180 kts 328°
2026-04-15 20:57 -15.82720 -56.02333 2078 ft 205 kts 328°
2026-04-15 20:57 -15.81435 -56.03087 2064 ft 219 kts 328°
2026-04-15 20:57 -15.80082 -56.03881 2052 ft 227 kts 328°
2026-04-15 20:57 -15.78698 -56.04702 2050 ft 232 kts 328°
2026-04-15 20:58 -15.77308 -56.05518 2046 ft 226 kts 329°
2026-04-15 20:58 -15.75974 -56.06302 2047 ft 218 kts 328°
2026-04-15 20:58 -15.74674 -56.07063 2049 ft 212 kts 329°
2026-04-15 20:58 -15.73407 -56.07803 2088 ft 202 kts 328°
2026-04-15 20:59 -15.72198 -56.08465 2051 ft 194 kts 335°
2026-04-15 20:59 -15.70976 -56.08928 2047 ft 181 kts 340°
2026-04-15 20:59 -15.69822 -56.09333 2089 ft 165 kts 339°
2026-04-15 20:59 -15.68805 -56.09758 1902 ft 152 kts 330°
2026-04-15 21:00 -15.67900 -56.10347 1389 ft 157 kts 319°
2026-04-15 21:00 -15.66961 -56.10775 1110 ft 125 kts 346°
2026-04-15 21:00 -15.66287 -56.11142 860 ft 107 kts 328°
2026-04-15 21:00 -15.65651 -56.11483 622 ft 92 kts 334°
2026-04-15 21:01 -15.65266 -56.11687 622 ft 26 kts 324°
2026-04-15 21:01 -15.65244 -56.11707 622 ft 2 kts 309°
2026-04-15 21:01 -15.65213 -56.11744 622 ft 8 kts 285°
2026-04-15 21:01 -15.65222 -56.11788 622 ft 4 kts 247°
2026-04-15 21:02 -15.65228 -56.11803 622 ft 2 kts 247°
2026-04-15 21:02 -15.65250 -56.11819 622 ft 5 kts 186°
2026-04-15 21:02 -15.65280 -56.11808 622 ft 5 kts 152°
2026-04-15 21:02 -15.65322 -56.11785 622 ft 8 kts 153°
2026-04-15 21:03 -15.65375 -56.11757 622 ft 9 kts 152°
2026-04-15 21:03 -15.65423 -56.11740 622 ft 5 kts 209°
2026-04-15 21:03 -15.65439 -56.11759 622 ft 2 kts 236°
2026-04-15 21:03 -15.65443 -56.11767 622 ft 0 kts 242°